Regional Weather Roundup
Issued by NWS

Home | Current Version | Previous Version | Graphics & Text | Print | Product List | Glossary On
Versions: 1 2 3 4 5 6 7 8 9 10 11 12 13 14 15 16 17 18 19 20 21 22 23 24 25 26 27 28 29 30 31 32 33 34 35 36 37 38 39 40 41 42 43 44 45 46 47 48 49 50
770
ASUS43 KOAX 280810
RWRNE

WEATHER ROUNDUP FOR NEBRASKA
NATIONAL WEATHER SERVICE OMAHA NE
300 AM CDT WED JUN 28 2017

NOTES: SATELLITE DATA IS BEING USED TO AUGMENT CLOUD COVER ABOVE
       12000 FEET.
       "FAIR" INDICATES FEW OR NO CLOUDS BELOW 12,000 FEET WITH NO
       SIGNIFICANT WEATHER AND/OR OBSTRUCTIONS TO VISIBILITY.

  * THESE STATIONS DO NOT REPORT WEATHER SUCH AS RAIN...SNOW OR FOG.

NEZ001>004-019>022-054>056-280900-
NEBRASKA PANHANDLE

CITY           SKY/WX    TMP DP  RH WIND       PRES   REMARKS
SCOTTSBLUFF    CLEAR     57  50  77 N9        29.86R
ALLIANCE       CLEAR     53  51  93 W10       29.81R
CHADRON        CLEAR     59  50  72 VRB3      29.78R
GORDON         FAIR      58  54  86 W9        29.76R
KIMBALL        CLEAR     58  46  63 NW9       29.92R
SIDNEY         CLOUDY    53  51  93 W7        29.89R
$$

NEZ057>060-069>072-079>082-280900-
SOUTHWEST NEBRASKA

CITY           SKY/WX    TMP DP  RH WIND       PRES   REMARKS
NORTH PLATTE   CLOUDY    63  60  90 S7        29.75R
IMPERIAL       PTCLDY    62  55  77 CALM      29.79R
LEXINGTON      CLOUDY    66  63  87 W5        29.73F
MCCOOK         CLOUDY    68  62  81 S5        29.74F
OGALLALA       PTCLDY    63  55  75 E3        29.80S
$$

NEZ005>010-023>029-035>040-094-280900-
NORTH CENTRAL NEBRASKA

CITY           SKY/WX    TMP DP  RH WIND       PRES   REMARKS
VALENTINE      PTCLDY    65  54  67 W10       29.69R
AINSWORTH      CLOUDY    62  58  87 SW16G23   29.71R
BROKEN BOW     CLOUDY    63  59  87 SE6       29.70F
O`NEILL        CLOUDY    65  60  86 S6        29.64R
ORD            CLOUDY    65  60  84 S8        29.69F
THEDFORD       CLEAR     59  55  87 W12       29.74R
$$

NEZ041-046>049-061>064-073>077-083>087-280900-
SOUTH CENTRAL NEBRASKA

CITY           SKY/WX    TMP DP  RH WIND       PRES   REMARKS
GRAND ISLAND   CLOUDY    65  65 100 N10       29.71F
AURORA         LGT RAIN  66  64  94 S9        29.74F
HASTINGS       MOCLDY    66  63  90 E6        29.76F
HEBRON         CLOUDY    78  65  64 S14G20    29.73F
HOLDREGE       TSTM      66  63  91 SE10      29.72F
KEARNEY *      CLOUDY    66  63  88 SE14      29.71F
YORK           CLOUDY    66  63  88 SE9       29.76F
$$

NEZ011>018-030>034-042>045-280900-
NORTHEAST NEBRASKA

CITY           SKY/WX    TMP DP  RH WIND       PRES   REMARKS
NORFOLK        CLOUDY    65  61  87 S18G25    29.63F
ALBION         CLOUDY    67  63  85 S15       29.71R
BLAIR          CLOUDY    67  64  91 S20G30    29.76S
FREMONT        TSTM      67  65  92 SW20G29   29.81R
TEKAMAH        LGT RAIN  68  64  87 SW9       29.77R
WAYNE          RAIN      68  67  99 W16       29.66F
$$

NEZ050>053-065>068-078-088>093-280900-
SOUTHEAST NEBRASKA

CITY           SKY/WX    TMP DP  RH WIND       PRES   REMARKS
LINCOLN        LGT RAIN  68  66  93 W3        29.79S
OMAHA EPPLEY   TSTM      69  63  81 SW17G30   29.73F
BEATRICE       TSTM      71  67  87 SE10G16   29.79F
FALLS CITY     CLOUDY    75  64  68 S18G25    29.76S
NEBRASKA CITY  TSTM      66  66 100 NW15G26   29.84S
PLATTSMOUTH    TSTM      66  62  86 SW18G25   29.83F
$$

NEZ044-045-051>053-067-280900-
OMAHA AREA

CITY           SKY/WX    TMP DP  RH WIND       PRES   REMARKS
OMAHA EPPLEY   TSTM      69  63  81 SW17G30   29.73F
BLAIR          CLOUDY    67  64  91 S20G30    29.76S
FREMONT        TSTM      67  65  92 SW20G29   29.81R
MILLARD        TSTM      69  65  87 S12G21    29.78F
OFFUTT AFB     TSTM      68  63  83 SW8       29.78F
PLATTSMOUTH    TSTM      66  62  86 SW18G25   29.83F
WAHOO          HVY RAIN  66  64  92 SW26G35   29.87R
$$




USA.gov is the U.S. government's official web portal to all federal, state and local government web resources and services.